International Virtual Aviation Organisation

Russian Federation and Kazakhstan MCD

 

Карточка аэропорта URRP

Внимание!
Информация на этой странице в стадии наполнения.
Если вы не увидели какой-то информации, или заметили неточность - пожалуйста сообщите нам!
Спасибо!
Команда RU-STAFF
Название аэропортаПлатов
Название аэропорта (англ.)Platov
Превышение282 ft. (86 m.)
Координаты47°29.634', 39°55.482'
Высота перехода900
Эшелон перехода050
Коды ответчика1000-1017
Зона ОрВДРостов-на-Дону РПИ (URRV)
Данные METARURRP 302100Z 00000MPS 8000 -SHRA SCT058CB 14/13 Q1014 R05/190050 TEMPO 2100 -TSRA BR SCT004 SCT020CB RMK QFE755/1007
Проноз погоды (TAF)URRP 301955Z 3021/3121 25003G11MPS 6000 SCT016 SCT020CB TEMPO 3021/3106 14003G11MPS -SHRA SCT003 BKN020CB PROB40 TEMPO 3021/3106 0300 FG BKN001 SCT020CB BECMG 3106/3108 12003G11MPS TEMPO 3108/3121 -SHRA BKN016 BKN020CB
NOTAMshow/hide NOTAM
AWOS   TABLE

Информация о ВПП

ВПП Длина ВПП (м.) Покрытие Курс ВПП Частота ILS
053900Цементобетон46111.5
233900Цементобетон226110.9

Диспетчерские позиции

Позывной Наименование органа УВД Частота
URRP_TWRПлатов-вышка119.7
URRP_R_APPПлатов - Круг121.2
URRP_APPПлатов-подход128.2
URRP_GNDПлатов - руление119.0
URRP_DELПлатов-деливери127.1



Спутниковое изображение